| time (UTC) | temp F | wind direction | speed knots | gust knots | rain 1hr in | rain 24hr in | rain mn in | humidity % | barometer mb |
| 20260904092202 | 68 | 50 | 0.0 | 0.0 | 0.00 | 0.50 | 0.50 | 99 | 1007.3 |
| 20260904091658 | 68 | 42 | 0.0 | 0.0 | 0.00 | 0.50 | 0.50 | 99 | 1007.3 |
| 20260904091158 | 68 | 55 | 0.0 | 0.0 | 0.00 | 0.50 | 0.50 | 99 | 1007.7 |
| 20260904090653 | 68 | 50 | 0.0 | 0.0 | 0.00 | 0.50 | 0.50 | 99 | 1007.5 |
| 20260904090149 | 68 | 72 | 0.0 | 0.0 | 0.00 | 0.50 | 0.50 | 99 | 1007.2 |
| 20260904085644 | 69 | 73 | 0.0 | 0.0 | 0.00 | 0.50 | 0.50 | 99 | 1007.3 |
| 20260904085138 | 69 | 73 | 0.0 | 0.0 | 0.00 | 0.50 | 0.50 | 99 | 1007.2 |
| 20260904084633 | 69 | 68 | 0.0 | 0.0 | 0.00 | 0.50 | 0.50 | 99 | 1007.2 |
| 20260904084130 | 69 | 353 | 0.0 | 0.0 | 0.00 | 0.50 | 0.50 | 99 | 1007.1 |
| 20260904083626 | 69 | 174 | 0.0 | 0.9 | 0.00 | 0.50 | 0.50 | 99 | 1007.1 |
| 20260904083121 | 69 | 339 | 0.0 | 0.0 | 0.00 | 0.50 | 0.50 | 99 | 1007.0 |
| 20260904082616 | 69 | 122 | 0.0 | 0.0 | 0.00 | 0.50 | 0.50 | 99 | 1007.0 |
| 20260904082112 | 69 | 62 | 0.0 | 0.0 | 0.00 | 0.50 | 0.50 | 99 | 1006.9 |
| 20260904081607 | 69 | 62 | 0.0 | 0.0 | 0.00 | 0.50 | 0.50 | 99 | 1006.9 |
| 20260904081102 | 69 | 50 | 0.0 | 0.0 | 0.00 | 0.50 | 0.50 | 99 | 1006.9 |
| 20260904080557 | 69 | 93 | 0.0 | 0.0 | 0.00 | 0.50 | 0.50 | 99 | 1006.7 |
| 20260904080054 | 69 | 76 | 0.0 | 0.0 | 0.07 | 0.50 | 0.50 | 99 | 1006.6 |
| 20260904075549 | 69 | 65 | 0.0 | 0.0 | 0.07 | 0.50 | 0.50 | 99 | 1006.5 |
| 20260904075044 | 69 | 73 | 0.0 | 0.0 | 0.05 | 0.49 | 0.49 | 99 | 1006.6 |
| 20260904074543 | 69 | 69 | 0.0 | 0.0 | 0.12 | 0.49 | 0.49 | 99 | 1006.7 |
| 20260904074038 | 69 | 40 | 0.9 | 0.9 | 0.24 | 0.49 | 0.49 | 99 | 1007.2 |
| 20260904073533 | 70 | 313 | 0.0 | 0.9 | 0.19 | 0.47 | 0.47 | 99 | 1007.6 |
| 20260904073029 | 70 | 0 | 1.7 | 2.6 | 0.19 | 0.45 | 0.45 | 99 | 1007.4 |
| 20260904072525 | 72 | 82 | 0.9 | 1.7 | 0.24 | 0.44 | 0.44 | 99 | 1007.8 |
| 20260904072020 | 72 | 42 | 0.9 | 1.7 | 0.40 | 0.42 | 0.42 | 99 | 1007.9 |
| 20260904071515 | 72 | 20 | 0.9 | 0.9 | 1.02 | 0.40 | 0.40 | 99 | 1007.9 |
| 20260904071010 | 72 | 47 | 0.0 | 0.9 | 1.02 | 0.36 | 0.36 | 99 | 1007.7 |
| 20260904070509 | 72 | 12 | 0.9 | 0.9 | 0.35 | 0.23 | 0.23 | 99 | 1007.7 |
| 20260904070004 | 72 | 249 | 0.9 | 0.9 | 0.12 | 0.19 | 0.19 | 99 | 1007.5 |
| 20260904065459 | 72 | 61 | 0.0 | 0.0 | 0.00 | 0.17 | 0.17 | 99 | 1007.3 |
| 20260904064955 | 72 | 61 | 0.0 | 0.0 | 0.00 | 0.17 | 0.17 | 99 | 1007.3 |
| 20260904064451 | 72 | 61 | 0.0 | 0.0 | 0.00 | 0.17 | 0.17 | 99 | 1007.4 |
| 20260904063945 | 72 | 259 | 0.0 | 0.9 | 0.00 | 0.17 | 0.17 | 99 | 1007.6 |
| 20260904063442 | 0 | 0.0 | 0.0 | 0.00 | 0.00 | 0.00 | 1007.6 | ||
| 20260904062937 | 0 | 0.0 | 0.0 | 0.00 | 0.00 | 0.00 | 1007.4 | ||
| 20260904062433 | 0 | 0.0 | 0.0 | 0.00 | 0.00 | 0.00 | 1007.5 | ||
| 20260904061928 | 0 | 0.0 | 0.0 | 0.00 | 0.00 | 0.00 | 1007.4 | ||
| 20260904061425 | 0 | 0.0 | 0.0 | 0.00 | 0.00 | 0.00 | 1007.5 | ||
| 20260904060920 | 0 | 0.0 | 0.0 | 0.00 | 0.00 | 0.00 | 1007.7 | ||
| 20260904060416 | 72 | 59 | 0.0 | 0.0 | 0.00 | 0.17 | 0.17 | 99 | 1007.8 |
| 20260904055912 | 72 | 59 | 0.0 | 0.0 | 0.00 | 0.17 | 0.17 | 99 | 1007.8 |
| 20260904055407 | 72 | 59 | 0.0 | 0.0 | 0.07 | 0.17 | 0.17 | 99 | 1007.7 |
| 20260904054903 | 72 | 76 | 0.0 | 0.0 | 0.07 | 0.17 | 0.17 | 99 | 1008.0 |
| 20260904054358 | 72 | 146 | 0.0 | 0.9 | 0.24 | 0.16 | 0.16 | 99 | 1008.1 |
| 20260904053853 | 72 | 73 | 0.0 | 0.0 | 0.54 | 0.16 | 0.16 | 99 | 1008.1 |
| 20260904053352 | 72 | 97 | 0.0 | 0.0 | 0.59 | 0.12 | 0.12 | 99 | 1008.6 |
| 20260904052849 | 72 | 48 | 0.0 | 0.0 | 0.28 | 0.07 | 0.07 | 99 | 1008.3 |
| 20260904052345 | 72 | 297 | 0.9 | 0.9 | 0.00 | 0.02 | 0.02 | 99 | 1008.7 |
| 20260904051841 | 72 | 259 | 0.9 | 0.9 | 0.07 | 0.02 | 0.02 | 99 | 1008.6 |
| 20260904051337 | 72 | 54 | 0.0 | 0.0 | 0.07 | 0.02 | 0.02 | 99 | 1008.5 |
| 20260904050831 | 72 | 327 | 0.0 | 0.0 | 0.00 | 0.01 | 0.01 | 99 | 1008.0 |
| 20260904050328 | 72 | 7 | 0.0 | 0.0 | 0.05 | 0.01 | 0.01 | 99 | 1008.1 |
| 20260904045827 | 72 | 45 | 0.0 | 0.0 | 0.05 | 0.01 | 0.01 | 99 | 1008.0 |
| 20260904045323 | 72 | 43 | 0.0 | 0.0 | 0.05 | 0.01 | 0.01 | 99 | 1008.0 |
| 20260904044817 | 72 | 43 | 0.0 | 0.0 | 0.00 | 0.00 | 0.00 | 99 | 1008.1 |
| 20260904044314 | 72 | 44 | 0.0 | 0.9 | 0.00 | 0.00 | 0.00 | 99 | 1008.1 |
| 20260904043810 | 72 | 46 | 0.0 | 0.0 | 0.00 | 0.00 | 0.00 | 99 | 1008.2 |
| 20260904043306 | 72 | 45 | 0.0 | 0.0 | 0.00 | 0.00 | 0.00 | 99 | 1008.4 |
| 20260904042801 | 72 | 43 | 0.0 | 0.0 | 0.00 | 0.00 | 0.00 | 99 | 1008.6 |
| 20260904042257 | 72 | 33 | 0.0 | 0.0 | 0.00 | 0.00 | 0.00 | 99 | 1008.4 |
| 20260904041756 | 72 | 33 | 0.0 | 0.0 | 0.00 | 0.00 | 0.00 | 99 | 1008.6 |
| 20260904041253 | 72 | 32 | 0.0 | 0.0 | 0.00 | 0.00 | 0.00 | 99 | 1008.7 |
| 20260904040748 | 72 | 357 | 0.0 | 0.0 | 0.00 | 0.00 | 0.00 | 99 | 1008.7 |
| 20260904040244 | 72 | 73 | 0.0 | 0.0 | 0.00 | 0.00 | 0.00 | 99 | 1008.5 |
| 20260904035735 | 72 | 74 | 0.0 | 0.0 | 0.00 | 0.26 | 0.26 | 99 | 1008.5 |
| 20260904035230 | 72 | 74 | 0.0 | 0.0 | 0.00 | 0.26 | 0.26 | 99 | 1008.6 |
| 20260904034729 | 72 | 70 | 0.0 | 0.0 | 0.00 | 0.26 | 0.26 | 99 | 1008.7 |
| 20260904034225 | 72 | 67 | 0.0 | 0.0 | 0.00 | 0.26 | 0.26 | 99 | 1008.5 |
| 20260904033720 | 72 | 69 | 0.0 | 0.0 | 0.00 | 0.26 | 0.26 | 99 | 1008.4 |
| 20260904033217 | 72 | 75 | 0.0 | 0.0 | 0.00 | 0.26 | 0.26 | 99 | 1008.6 |
| 20260904032713 | 72 | 71 | 0.0 | 0.0 | 0.00 | 0.26 | 0.26 | 99 | 1008.4 |
| 20260904032212 | 72 | 75 | 0.0 | 0.0 | 0.00 | 0.26 | 0.26 | 99 | 1008.5 |
| 20260904031712 | 72 | 68 | 0.0 | 0.0 | 0.00 | 0.26 | 0.26 | 99 | 1008.6 |
| 20260904031207 | 72 | 74 | 0.0 | 0.0 | 0.00 | 0.26 | 0.26 | 99 | 1008.7 |
| 20260904030703 | 73 | 77 | 0.0 | 0.0 | 0.00 | 0.26 | 0.26 | 99 | 1008.8 |
| 20260904030158 | 73 | 75 | 0.0 | 0.0 | 0.00 | 0.26 | 0.26 | 99 | 1008.9 |
| 20260904025654 | 73 | 55 | 0.0 | 0.0 | 0.00 | 0.26 | 0.26 | 99 | 1009.1 |
| 20260904025149 | 73 | 61 | 0.0 | 0.0 | 0.00 | 0.26 | 0.26 | 99 | 1009.2 |
| 20260904024645 | 73 | 61 | 0.0 | 0.0 | 0.00 | 0.26 | 0.26 | 99 | 1009.1 |
| 20260904024140 | 73 | 54 | 0.0 | 0.0 | 0.00 | 0.26 | 0.26 | 99 | 1009.0 |
| 20260904023636 | 73 | 75 | 0.0 | 0.0 | 0.00 | 0.26 | 0.26 | 99 | 1009.2 |
| 20260904023131 | 73 | 76 | 0.0 | 0.0 | 0.00 | 0.26 | 0.26 | 99 | 1009.1 |
| 20260904022625 | 73 | 90 | 0.0 | 0.0 | 0.00 | 0.26 | 0.26 | 99 | 1009.2 |
| 20260904022123 | 73 | 104 | 0.0 | 0.0 | 0.00 | 0.26 | 0.26 | 99 | 1009.2 |
| 20260904021618 | 73 | 85 | 0.0 | 0.0 | 0.00 | 0.26 | 0.26 | 99 | 1009.6 |
| 20260904021113 | 73 | 95 | 0.0 | 0.0 | 0.00 | 0.26 | 0.26 | 99 | 1009.3 |
| 20260904020608 | 73 | 90 | 0.0 | 0.0 | 0.00 | 0.26 | 0.26 | 99 | 1009.4 |
| 20260904020057 | 73 | 76 | 0.0 | 0.0 | 0.00 | 0.26 | 0.26 | 99 | 1009.4 |
| 20260904015551 | 73 | 68 | 0.0 | 0.0 | 0.00 | 0.26 | 0.26 | 99 | 1009.6 |
| 20260904015050 | 73 | 77 | 0.0 | 0.0 | 0.00 | 0.26 | 0.26 | 99 | 1009.8 |
| 20260904014544 | 73 | 106 | 0.0 | 0.9 | 0.00 | 0.26 | 0.26 | 99 | 1009.8 |
| 20260904014040 | 73 | 77 | 0.0 | 0.0 | 0.00 | 0.26 | 0.26 | 99 | 1009.5 |
| 20260904013536 | 73 | 69 | 0.0 | 0.0 | 0.00 | 0.26 | 0.26 | 99 | 1009.5 |
| 20260904013033 | 74 | 75 | 0.0 | 0.0 | 0.00 | 0.26 | 0.26 | 99 | 1009.2 |
| 20260904012533 | 74 | 75 | 0.0 | 0.0 | 0.00 | 0.26 | 0.26 | 99 | 1009.4 |
| 20260904012032 | 73 | 75 | 0.0 | 0.0 | 0.00 | 0.26 | 0.26 | 99 | 1009.7 |
| 20260904011526 | 74 | 75 | 0.0 | 0.0 | 0.00 | 0.26 | 0.26 | 99 | 1009.6 |
| 20260904011021 | 73 | 76 | 0.0 | 0.0 | 0.00 | 0.26 | 0.26 | 99 | 1009.6 |
| 20260904010518 | 74 | 76 | 0.0 | 0.0 | 0.00 | 0.26 | 0.26 | 99 | 1009.6 |
| 20260904010013 | 74 | 76 | 0.0 | 0.0 | 0.00 | 0.26 | 0.26 | 99 | 1009.4 |
| 20260904005508 | 74 | 77 | 0.0 | 0.0 | 0.00 | 0.26 | 0.26 | 99 | 1009.6 |
| 20260904005003 | 74 | 77 | 0.0 | 0.0 | 0.00 | 0.26 | 0.26 | 99 | 1009.4 |
| 20260904004459 | 74 | 78 | 0.0 | 0.0 | 0.00 | 0.26 | 0.26 | 99 | 1009.6 |
| 20260904003959 | 74 | 77 | 0.0 | 0.0 | 0.00 | 0.26 | 0.26 | 99 | 1009.4 |
| 20260904003455 | 74 | 77 | 0.0 | 0.0 | 0.00 | 0.26 | 0.26 | 99 | 1009.5 |
| 20260904002950 | 75 | 79 | 0.0 | 0.0 | 0.00 | 0.26 | 0.26 | 99 | 1009.4 |
| 20260904002446 | 75 | 101 | 0.0 | 0.9 | 0.00 | 0.26 | 0.26 | 99 | 1009.2 |
| 20260904001945 | 75 | 77 | 0.0 | 0.0 | 0.00 | 0.26 | 0.26 | 98 | 1009.4 |
| 20260904001441 | 75 | 124 | 0.9 | 0.9 | 0.00 | 0.26 | 0.26 | 98 | 1009.3 |
| 20260904000935 | 75 | 103 | 0.0 | 0.9 | 0.00 | 0.26 | 0.26 | 98 | 1009.3 |
| 20260904000435 | 75 | 88 | 0.0 | 0.0 | 0.00 | 0.26 | 0.26 | 98 | 1009.1 |
| 20260903235930 | 75 | 116 | 0.0 | 0.9 | 0.00 | 0.26 | 0.26 | 98 | 1009.1 |
| 20260903235426 | 75 | 134 | 0.9 | 0.9 | 0.00 | 0.26 | 0.26 | 98 | 1009.1 |
| 20260903234926 | 75 | 110 | 0.0 | 0.9 | 0.00 | 0.26 | 0.26 | 98 | 1009.0 |
| 20260903234421 | 75 | 106 | 0.0 | 0.0 | 0.00 | 0.26 | 0.26 | 98 | 1008.9 |
| 20260903233918 | 76 | 87 | 0.0 | 0.0 | 0.00 | 0.26 | 0.26 | 97 | 1008.9 |
| 20260903233413 | 76 | 85 | 0.0 | 0.0 | 0.00 | 0.26 | 0.26 | 97 | 1008.8 |
| 20260903232908 | 76 | 106 | 0.0 | 0.0 | 0.00 | 0.26 | 0.26 | 97 | 1009.0 |
| 20260903232403 | 76 | 93 | 0.0 | 0.0 | 0.00 | 0.26 | 0.26 | 96 | 1008.8 |
| 20260903231902 | 76 | 97 | 0.0 | 0.0 | 0.00 | 0.26 | 0.26 | 96 | 1008.9 |
| 20260903231357 | 76 | 102 | 0.0 | 0.9 | 0.00 | 0.26 | 0.26 | 95 | 1008.7 |
| 20260903230853 | 76 | 97 | 0.0 | 0.0 | 0.00 | 0.26 | 0.26 | 95 | 1008.8 |
| 20260903230348 | 76 | 84 | 0.0 | 0.0 | 0.00 | 0.26 | 0.26 | 95 | 1008.8 |
| 20260903225844 | 77 | 97 | 0.0 | 0.0 | 0.00 | 0.26 | 0.26 | 96 | 1008.7 |
| 20260903225340 | 77 | 113 | 0.0 | 0.0 | 0.00 | 0.26 | 0.26 | 95 | 1008.6 |
| 20260903224836 | 77 | 113 | 0.9 | 0.9 | 0.00 | 0.26 | 0.26 | 94 | 1008.7 |
| 20260903224332 | 78 | 97 | 0.0 | 0.0 | 0.00 | 0.26 | 0.26 | 93 | 1009.0 |
| 20260903223828 | 78 | 83 | 0.0 | 0.0 | 0.00 | 0.26 | 0.26 | 93 | 1008.8 |
| 20260903223326 | 78 | 118 | 0.0 | 0.9 | 0.00 | 0.26 | 0.26 | 93 | 1008.9 |
| 20260903222821 | 79 | 88 | 0.0 | 0.0 | 0.00 | 0.26 | 0.26 | 91 | 1008.9 |
| 20260903222321 | 79 | 84 | 0.0 | 0.0 | 0.00 | 0.26 | 0.26 | 91 | 1009.0 |
| 20260903221815 | 80 | 109 | 0.0 | 0.9 | 0.00 | 0.26 | 0.26 | 90 | 1009.2 |
| 20260903221314 | 80 | 145 | 0.0 | 0.9 | 0.00 | 0.26 | 0.26 | 89 | 1009.2 |
| 20260903220813 | 81 | 83 | 0.0 | 0.0 | 0.00 | 0.26 | 0.26 | 88 | 1009.4 |
| 20260903220307 | 81 | 137 | 0.0 | 0.9 | 0.00 | 0.26 | 0.26 | 87 | 1009.3 |
| 20260903215805 | 81 | 76 | 0.0 | 0.0 | 0.00 | 0.26 | 0.26 | 85 | 1008.9 |
| 20260903215305 | 81 | 84 | 0.0 | 0.0 | 0.00 | 0.26 | 0.26 | 87 | 1009.2 |
| 20260903214800 | 80 | 276 | 0.0 | 0.9 | 0.00 | 0.26 | 0.26 | 87 | 1009.0 |
| 20260903214255 | 80 | 111 | 0.9 | 0.9 | 0.00 | 0.26 | 0.26 | 89 | 1009.0 |
| 20260903213750 | 80 | 91 | 0.0 | 0.0 | 0.00 | 0.26 | 0.26 | 90 | 1008.9 |
| 20260903213245 | 81 | 58 | 0.0 | 0.0 | 0.00 | 0.26 | 0.26 | 89 | 1009.0 |
| 20260903212736 | 80 | 78 | 0.0 | 0.0 | 0.00 | 0.26 | 0.26 | 87 | 1009.0 |
| 20260903212233 | 81 | 64 | 0.0 | 0.0 | 0.00 | 0.26 | 0.26 | 86 | 1008.8 |
| 20260903211731 | 80 | 91 | 0.0 | 0.0 | 0.00 | 0.26 | 0.26 | 85 | 1008.7 |
| 20260903211228 | 81 | 72 | 0.0 | 0.0 | 0.00 | 0.26 | 0.26 | 86 | 1008.7 |
| 20260903210723 | 81 | 215 | 0.9 | 0.9 | 0.00 | 0.26 | 0.26 | 84 | 1008.9 |
| 20260903210219 | 81 | 102 | 0.0 | 0.9 | 0.00 | 0.26 | 0.26 | 84 | 1008.6 |
| 20260903205713 | 81 | 19 | 0.0 | 0.0 | 0.00 | 0.26 | 0.26 | 83 | 1008.9 |
| 20260903205212 | 82 | 113 | 0.0 | 0.0 | 0.00 | 0.26 | 0.26 | 83 | 1008.8 |
| 20260903204708 | 82 | 127 | 0.9 | 0.9 | 0.00 | 0.26 | 0.26 | 84 | 1009.0 |
| 20260903204204 | 81 | 36 | 0.0 | 0.9 | 0.00 | 0.26 | 0.26 | 82 | 1008.7 |
| 20260903203659 | 82 | 27 | 0.9 | 0.9 | 0.00 | 0.26 | 0.26 | 83 | 1009.1 |
| 20260903203154 | 82 | 184 | 0.9 | 0.9 | 0.00 | 0.26 | 0.26 | 84 | 1009.1 |
| 20260903202649 | 82 | 79 | 0.0 | 0.0 | 0.00 | 0.26 | 0.26 | 81 | 1009.0 |
| 20260903202144 | 81 | 46 | 0.0 | 0.0 | 0.00 | 0.26 | 0.26 | 88 | 1009.1 |
| 20260903201638 | 80 | 66 | 0.0 | 0.0 | 0.00 | 0.26 | 0.26 | 89 | 1009.3 |
| 20260903201137 | 80 | 66 | 0.0 | 0.0 | 0.00 | 0.26 | 0.26 | 91 | 1009.0 |
| 20260903200632 | 80 | 66 | 0.0 | 0.0 | 0.00 | 0.26 | 0.26 | 89 | 1009.1 |
| 20260903200127 | 79 | 67 | 0.0 | 0.0 | 0.00 | 0.26 | 0.26 | 88 | 1009.4 |
| 20260903195624 | 79 | 48 | 0.0 | 0.0 | 0.00 | 0.26 | 0.26 | 86 | 1009.3 |
| 20260903195119 | 80 | 51 | 0.0 | 0.0 | 0.00 | 0.26 | 0.26 | 85 | 1009.2 |
| 20260903194615 | 80 | 65 | 0.0 | 0.0 | 0.00 | 0.26 | 0.26 | 83 | 1009.3 |
| 20260903194114 | 81 | 24 | 0.9 | 0.9 | 0.00 | 0.26 | 0.26 | 84 | 1009.2 |
| 20260903193611 | 81 | 14 | 0.0 | 0.0 | 0.00 | 0.26 | 0.26 | 83 | 1009.5 |
| 20260903193106 | 82 | 10 | 1.7 | 1.7 | 0.00 | 0.26 | 0.26 | 82 | 1009.3 |
| 20260903192603 | 81 | 99 | 0.9 | 0.9 | 0.00 | 0.26 | 0.26 | 81 | 1009.3 |
| 20260903192057 | 82 | 168 | 0.9 | 0.9 | 0.00 | 0.26 | 0.26 | 82 | 1009.5 |
| 20260903191554 | 81 | 53 | 0.0 | 0.9 | 0.00 | 0.26 | 0.26 | 81 | 1009.3 |
| 20260903191048 | 81 | 67 | 0.0 | 0.0 | 0.00 | 0.26 | 0.26 | 82 | 1009.3 |
| 20260903190542 | 81 | 22 | 0.0 | 0.9 | 0.00 | 0.26 | 0.26 | 84 | 1009.5 |
| 20260903190042 | 81 | 34 | 0.0 | 0.0 | 0.00 | 0.26 | 0.26 | 85 | 1009.6 |
| 20260903185537 | 81 | 6 | 0.0 | 0.0 | 0.00 | 0.26 | 0.26 | 84 | 1009.8 |
| 20260903185032 | 82 | 77 | 0.0 | 0.0 | 0.00 | 0.26 | 0.26 | 83 | 1009.6 |
| 20260903184529 | 82 | 158 | 0.0 | 0.9 | 0.00 | 0.26 | 0.26 | 81 | 1009.8 |
| 20260903184023 | 82 | 342 | 0.0 | 0.9 | 0.00 | 0.26 | 0.26 | 82 | 1009.8 |
| 20260903183523 | 82 | 121 | 0.0 | 0.9 | 0.00 | 0.26 | 0.26 | 85 | 1009.7 |
| 20260903183018 | 82 | 20 | 0.9 | 0.9 | 0.00 | 0.26 | 0.26 | 81 | 1009.7 |
| 20260903182516 | 81 | 87 | 0.9 | 0.9 | 0.00 | 0.26 | 0.26 | 80 | 1009.8 |
| 20260903182013 | 81 | 21 | 0.9 | 0.9 | 0.00 | 0.26 | 0.26 | 84 | 1009.9 |
| 20260903181506 | 81 | 47 | 0.9 | 1.7 | 0.00 | 0.26 | 0.26 | 80 | 1009.6 |
| 20260903181006 | 80 | 349 | 0.9 | 0.9 | 0.00 | 0.26 | 0.26 | 82 | 1010.1 |
| 20260903180501 | 80 | 17 | 1.7 | 2.6 | 0.00 | 0.26 | 0.26 | 83 | 1010.1 |
| 20260903180000 | 81 | 83 | 0.9 | 1.7 | 0.00 | 0.26 | 0.26 | 84 | 1010.2 |
| 20260903175454 | 81 | 82 | 0.9 | 0.9 | 0.00 | 0.26 | 0.26 | 84 | 1010.3 |
| 20260903174953 | 81 | 3 | 0.9 | 0.9 | 0.00 | 0.26 | 0.26 | 85 | 1010.4 |
| 20260903174449 | 80 | 218 | 0.9 | 0.9 | 0.00 | 0.26 | 0.26 | 86 | 1010.6 |
| 20260903173948 | 79 | 23 | 0.9 | 0.9 | 0.00 | 0.26 | 0.26 | 84 | 1010.4 |
| 20260903173444 | 79 | 234 | 0.9 | 2.6 | 0.00 | 0.26 | 0.26 | 87 | 1010.2 |
| 20260903172939 | 79 | 186 | 0.0 | 0.0 | 0.00 | 0.26 | 0.26 | 91 | 1010.4 |
| 20260903172434 | 77 | 38 | 0.0 | 0.0 | 0.00 | 0.26 | 0.26 | 90 | 1010.7 |
| 20260903171930 | 76 | 8 | 0.9 | 0.9 | 0.00 | 0.26 | 0.26 | 90 | 1010.7 |
| 20260903171425 | 76 | 60 | 0.0 | 0.0 | 0.00 | 0.26 | 0.26 | 91 | 1010.8 |
| 20260903170925 | 76 | 53 | 0.0 | 0.0 | 0.00 | 0.26 | 0.26 | 90 | 1010.9 |
| 20260903170419 | 76 | 187 | 0.9 | 0.9 | 0.00 | 0.26 | 0.26 | 89 | 1010.8 |
| 20260903165918 | 77 | 192 | 0.9 | 0.9 | 0.00 | 0.26 | 0.26 | 89 | 1010.9 |
| 20260903165413 | 76 | 74 | 0.0 | 0.9 | 0.00 | 0.26 | 0.26 | 87 | 1010.9 |
| 20260903164907 | 77 | 20 | 0.9 | 0.9 | 0.00 | 0.26 | 0.26 | 88 | 1010.8 |
| 20260903164402 | 77 | 73 | 1.7 | 2.6 | 0.00 | 0.26 | 0.26 | 86 | 1010.8 |
| 20260903163902 | 77 | 223 | 0.9 | 0.9 | 0.00 | 0.26 | 0.26 | 88 | 1010.6 |
| 20260903163358 | 78 | 146 | 0.9 | 0.9 | 0.00 | 0.26 | 0.26 | 89 | 1010.8 |
| 20260903162854 | 77 | 206 | 0.9 | 0.9 | 0.00 | 0.26 | 0.26 | 89 | 1011.1 |
| 20260903162350 | 76 | 268 | 1.7 | 1.7 | 0.00 | 0.26 | 0.26 | 90 | 1011.0 |
| 20260903161846 | 75 | 350 | 0.9 | 0.9 | 0.00 | 0.26 | 0.26 | 92 | 1011.0 |
| 20260903161341 | 76 | 226 | 0.9 | 0.9 | 0.00 | 0.26 | 0.26 | 94 | 1011.1 |
| 20260903160837 | 75 | 133 | 0.9 | 0.9 | 0.00 | 0.26 | 0.26 | 94 | 1011.0 |
| 20260903160335 | 75 | 14 | 0.0 | 0.9 | 0.00 | 0.26 | 0.26 | 94 | 1011.3 |
| 20260903155834 | 75 | 188 | 0.9 | 1.7 | 0.00 | 0.26 | 0.26 | 94 | 1011.4 |
| 20260903155330 | 74 | 210 | 0.9 | 0.9 | 0.00 | 0.26 | 0.26 | 94 | 1011.7 |
| 20260903154825 | 75 | 231 | 0.9 | 2.6 | 0.00 | 0.26 | 0.26 | 95 | 1011.8 |
| 20260903154321 | 74 | 303 | 0.0 | 0.9 | 0.00 | 0.26 | 0.26 | 98 | 1011.6 |
| 20260903153816 | 73 | 77 | 0.0 | 0.9 | 0.00 | 0.26 | 0.26 | 99 | 1011.4 |
| 20260903153312 | 72 | 282 | 0.9 | 1.7 | 0.00 | 0.26 | 0.26 | 99 | 1011.2 |
| 20260903152808 | 72 | 356 | 0.0 | 0.0 | 0.00 | 0.26 | 0.26 | 99 | 1011.4 |
| 20260903152306 | 71 | 287 | 0.9 | 1.7 | 0.00 | 0.26 | 0.26 | 99 | 1011.6 |
| 20260903151758 | 72 | 173 | 1.7 | 1.7 | 0.00 | 0.26 | 0.26 | 99 | 1011.6 |
| 20260903151254 | 71 | 96 | 0.9 | 0.9 | 0.00 | 0.26 | 0.26 | 99 | 1011.8 |
| 20260903150754 | 71 | 80 | 0.0 | 0.9 | 0.00 | 0.26 | 0.26 | 99 | 1011.6 |
| 20260903150248 | 70 | 308 | 0.0 | 0.9 | 0.00 | 0.26 | 0.26 | 99 | 1011.9 |
| 20260903145744 | 71 | 273 | 0.9 | 1.7 | 0.00 | 0.26 | 0.26 | 99 | 1011.6 |
| 20260903145239 | 71 | 310 | 0.0 | 0.9 | 0.00 | 0.26 | 0.26 | 99 | 1011.6 |
| 20260903144737 | 70 | 73 | 0.0 | 0.0 | 0.00 | 0.26 | 0.26 | 99 | 1011.6 |
| 20260903144233 | 70 | 270 | 0.9 | 0.9 | 0.00 | 0.26 | 0.26 | 99 | 1012.1 |
| 20260903143728 | 70 | 306 | 0.0 | 0.9 | 0.00 | 0.26 | 0.26 | 99 | 1011.8 |
| 20260903143225 | 69 | 119 | 0.9 | 0.9 | 0.00 | 0.26 | 0.26 | 99 | 1011.6 |
| 20260903142720 | 69 | 206 | 0.0 | 0.9 | 0.00 | 0.26 | 0.26 | 99 | 1011.9 |
| 20260903142217 | 69 | 49 | 0.0 | 0.0 | 0.00 | 0.26 | 0.26 | 99 | 1011.8 |
| 20260903141712 | 69 | 306 | 1.7 | 1.7 | 0.00 | 0.26 | 0.26 | 99 | 1011.7 |
| 20260903141207 | 70 | 358 | 0.9 | 0.9 | 0.00 | 0.26 | 0.26 | 99 | 1011.5 |
| 20260903140703 | 69 | 264 | 0.9 | 0.9 | 0.00 | 0.26 | 0.26 | 99 | 1011.6 |
| 20260903140158 | 69 | 68 | 0.0 | 0.0 | 0.00 | 0.26 | 0.26 | 99 | 1011.6 |
| 20260903135653 | 69 | 217 | 0.0 | 0.9 | 0.00 | 0.26 | 0.26 | 99 | 1011.7 |
| 20260903135148 | 69 | 175 | 0.0 | 0.0 | 0.00 | 0.26 | 0.26 | 99 | 1011.7 |
| 20260903134647 | 69 | 339 | 0.0 | 0.0 | 0.00 | 0.26 | 0.26 | 99 | 1011.8 |
| 20260903134143 | 69 | 35 | 0.0 | 0.0 | 0.00 | 0.26 | 0.26 | 99 | 1011.7 |
| 20260903133641 | 69 | 38 | 0.0 | 0.0 | 0.00 | 0.26 | 0.26 | 99 | 1011.7 |
| 20260903133136 | 69 | 354 | 0.0 | 0.0 | 0.00 | 0.26 | 0.26 | 99 | 1011.8 |
| 20260903132630 | 69 | 92 | 0.0 | 0.0 | 0.00 | 0.26 | 0.26 | 99 | 1011.8 |
| 20260903132125 | 69 | 323 | 0.0 | 0.0 | 0.00 | 0.26 | 0.26 | 99 | 1011.7 |
| 20260903131620 | 69 | 352 | 0.0 | 0.0 | 0.00 | 0.26 | 0.26 | 99 | 1011.8 |
| 20260903131119 | 69 | 44 | 0.0 | 0.0 | 0.00 | 0.26 | 0.26 | 99 | 1011.7 |
| 20260903130616 | 69 | 250 | 0.9 | 1.7 | 0.00 | 0.26 | 0.26 | 99 | 1011.7 |
| 20260903130109 | 68 | 352 | 0.0 | 0.0 | 0.00 | 0.26 | 0.26 | 99 | 1012.0 |
| 20260903125607 | 68 | 135 | 0.0 | 0.0 | 0.00 | 0.26 | 0.26 | 99 | 1012.1 |
| 20260903125103 | 68 | 36 | 0.0 | 0.9 | 0.00 | 0.26 | 0.26 | 99 | 1012.4 |
| 20260903124603 | 68 | 146 | 0.0 | 0.0 | 0.00 | 0.26 | 0.26 | 99 | 1012.2 |
| 20260903124102 | 68 | 146 | 0.0 | 0.0 | 0.00 | 0.26 | 0.26 | 99 | 1012.1 |
| 20260903123602 | 68 | 146 | 0.0 | 0.0 | 0.00 | 0.26 | 0.26 | 99 | 1012.4 |
| 20260903123100 | 68 | 146 | 0.0 | 0.0 | 0.00 | 0.26 | 0.26 | 99 | 1011.9 |
| 20260903122555 | 68 | 147 | 0.0 | 0.0 | 0.00 | 0.26 | 0.26 | 99 | 1012.3 |
| 20260903122055 | 68 | 137 | 0.0 | 0.0 | 0.00 | 0.26 | 0.26 | 99 | 1012.4 |
| 20260903121549 | 68 | 156 | 0.0 | 0.0 | 0.07 | 0.26 | 0.26 | 99 | 1012.2 |
| 20260903121045 | 67 | 134 | 0.0 | 0.0 | 0.26 | 0.26 | 0.26 | 99 | 1012.3 |
| 20260903120544 | 67 | 135 | 0.0 | 0.0 | 0.19 | 0.25 | 0.25 | 99 | 1012.6 |
| 20260903120039 | 67 | 140 | 0.0 | 0.0 | 0.00 | 0.22 | 0.22 | 99 | 1012.4 |
| 20260903115537 | 67 | 139 | 0.0 | 0.0 | 0.00 | 0.22 | 0.22 | 99 | 1012.5 |
| 20260903115032 | 67 | 139 | 0.0 | 0.0 | 0.00 | 0.22 | 0.22 | 99 | 1012.7 |
| 20260903114527 | 67 | 139 | 0.0 | 0.0 | 0.00 | 0.22 | 0.22 | 99 | 1012.5 |
| 20260903114023 | 67 | 139 | 0.0 | 0.0 | 0.00 | 0.22 | 0.22 | 99 | 1012.7 |
| 20260903113518 | 67 | 141 | 0.0 | 0.0 | 0.00 | 0.22 | 0.22 | 99 | 1012.5 |
| 20260903113015 | 67 | 141 | 0.0 | 0.0 | 0.00 | 0.22 | 0.22 | 99 | 1012.7 |
| 20260903112510 | 67 | 141 | 0.0 | 0.0 | 0.00 | 0.22 | 0.22 | 99 | 1012.5 |
| 20260903112009 | 67 | 141 | 0.0 | 0.0 | 0.00 | 0.22 | 0.22 | 99 | 1012.7 |
| 20260903111503 | 67 | 141 | 0.0 | 0.0 | 0.00 | 0.22 | 0.22 | 99 | 1012.2 |
| 20260903111000 | 67 | 141 | 0.0 | 0.0 | 0.00 | 0.22 | 0.22 | 99 | 1012.4 |
| 20260903110455 | 67 | 142 | 0.0 | 0.0 | 0.00 | 0.22 | 0.22 | 99 | 1012.4 |
| 20260903105949 | 67 | 142 | 0.0 | 0.0 | 0.00 | 0.22 | 0.22 | 99 | 1012.5 |
| 20260903105445 | 67 | 142 | 0.0 | 0.0 | 0.00 | 0.22 | 0.22 | 99 | 1012.6 |
| 20260903104944 | 67 | 142 | 0.0 | 0.0 | 0.00 | 0.22 | 0.22 | 99 | 1012.2 |
| 20260903104444 | 67 | 321 | 0.0 | 0.0 | 0.00 | 0.22 | 0.22 | 99 | 1012.6 |
| 20260903103941 | 67 | 268 | 0.9 | 0.9 | 0.00 | 0.22 | 0.22 | 99 | 1012.5 |
| 20260903103436 | 67 | 152 | 0.0 | 0.9 | 0.00 | 0.22 | 0.22 | 99 | 1012.4 |
| 20260903102932 | 67 | 141 | 0.0 | 0.0 | 0.00 | 0.22 | 0.22 | 99 | 1012.7 |
| 20260903102427 | 67 | 356 | 0.0 | 0.0 | 0.00 | 0.22 | 0.22 | 99 | 1012.6 |
| 20260903101926 | 67 | 148 | 0.0 | 0.0 | 0.00 | 0.22 | 0.22 | 99 | 1012.4 |
| 20260903101421 | 67 | 117 | 0.0 | 0.0 | 0.00 | 0.22 | 0.22 | 99 | 1012.3 |
| 20260903100916 | 67 | 22 | 0.0 | 0.0 | 0.00 | 0.22 | 0.22 | 99 | 1012.5 |
| 20260903100411 | 67 | 268 | 0.0 | 0.0 | 0.00 | 0.22 | 0.22 | 99 | 1012.5 |
| 20260903095908 | 67 | 127 | 0.0 | 0.0 | 0.00 | 0.22 | 0.22 | 99 | 1012.2 |
| 20260903095403 | 67 | 194 | 0.0 | 0.9 | 0.00 | 0.22 | 0.22 | 99 | 1012.2 |
| 20260903094857 | 67 | 301 | 0.9 | 1.7 | 0.00 | 0.22 | 0.22 | 99 | 1012.3 |
| 20260903094352 | 67 | 359 | 0.0 | 0.0 | 0.00 | 0.22 | 0.22 | 99 | 1012.1 |
| 20260903093848 | 67 | 274 | 0.0 | 0.9 | 0.00 | 0.22 | 0.22 | 99 | 1012.1 |
| 20260903093342 | 67 | 273 | 0.0 | 0.9 | 0.00 | 0.22 | 0.22 | 99 | 1012.3 |
| 20260903092838 | 67 | 338 | 0.0 | 0.0 | 0.00 | 0.22 | 0.22 | 99 | 1012.0 |